W4NRG-1 Weather Reports


time (UTC)temp
F
wind
direction
speed
knots
gust
knots
rain 1hr
in
rain 24hr
in
rain mn
in
humidity
%
barometer
mb
20260507081912 58 198 0.0 0.9 0.00 0.03 0.03 89 1011.3
20260507081408 58 220 0.0 0.0 0.00 0.03 0.03 89 1011.1
20260507080905 58 220 0.0 0.9 0.00 0.03 0.03 89 1011.4
20260507080401 58 240 0.0 1.7 0.00 0.03 0.03 89 1011.3
20260507075857 58 243 0.0 0.0 0.00 0.03 0.03 90 1011.2
20260507075353 58 189 0.0 0.9 0.00 0.03 0.03 90 1011.5
20260507074850 58 307 0.9 2.6 0.00 0.03 0.03 90 1011.8
20260507074347 59 180 0.0 3.5 0.00 0.03 0.03 91 1011.8
20260507073844 59 338 0.9 6.1 0.00 0.03 0.03 92 1011.6
20260507073341 59 234 1.7 1.7 0.00 0.03 0.03 92 1011.6
20260507072838 59 246 1.7 2.6 0.00 0.03 0.03 92 1011.5
20260507072336 59 99 1.7 2.6 0.00 0.03 0.03 92 1011.2
20260507071833 60 247 0.9 7.0 0.00 0.03 0.03 92 1011.1
20260507071330 60 247 0.9 3.5 0.00 0.03 0.03 93 1010.9
20260507070826 60 172 2.6 7.8 0.00 0.03 0.03 93 1010.7
20260507070324 61 244 0.0 1.7 0.00 0.03 0.03 93 1010.8
20260507065820 61 182 0.9 2.6 0.00 0.03 0.03 94 1010.5
20260507065317 62 241 1.7 2.6 0.00 0.03 0.03 94 1010.1
20260507064814 62 163 0.0 0.9 0.00 0.03 0.03 94 1010.0
20260507064313 62 233 0.9 1.7 0.00 0.03 0.03 94 1010.0
20260507063810 62 154 0.9 1.7 0.00 0.03 0.03 94 1009.8
20260507063307 62 185 0.0 0.9 0.00 0.03 0.03 93 1009.8
20260507062803 62 119 0.9 0.9 0.00 0.03 0.03 94 1009.7
20260507062300 62 222 0.0 0.0 0.00 0.03 0.03 94 1010.0
20260507061759 62 185 0.0 0.0 0.00 0.03 0.03 94 1010.0
20260507061256 62 156 0.0 0.9 0.00 0.03 0.03 94 1010.1
20260507060754 63 222 0.0 0.9 0.00 0.03 0.03 94 1010.4
20260507060250 63 152 0.0 0.0 0.00 0.03 0.03 94 1010.3
20260507055747 63 175 0.0 0.0 0.00 0.03 0.03 94 1010.5
20260507055242 63 199 0.0 0.0 0.00 0.03 0.03 94 1010.6
20260507054739 63 169 0.0 0.9 0.00 0.03 0.03 94 1010.4
20260507054236 63 159 0.0 0.9 0.00 0.03 0.03 95 1010.5
20260507053733 64 152 0.9 0.9 0.00 0.03 0.03 95 1010.5
20260507053231 64 160 0.9 2.6 0.07 0.03 0.03 96 1010.6
20260507052730 63 127 0.9 0.9 0.19 0.03 0.03 95 1010.6
20260507052225 63 106 0.0 0.0 0.12 0.02 0.02 95 1010.6
20260507051724 63 105 0.0 0.0 0.00 0.00 0.00 95 1010.4
20260507051220 63 106 0.0 0.0 0.00 0.00 0.00 95 1010.8
20260507050717 63 106 0.0 0.0 0.00 0.00 0.00 95 1010.5
20260507050214 63 106 0.0 0.0 0.00 0.00 0.00 95 1010.4
20260507045710 63 106 0.0 0.0 0.00 0.00 0.00 95 1010.6
20260507045207 63 106 0.0 0.0 0.00 0.00 0.00 95 1010.5
20260507044704 63 106 0.0 0.0 0.00 0.00 0.00 95 1010.4
20260507044200 63 106 0.0 0.0 0.00 0.00 0.00 95 1010.8
20260507043657 63 106 0.0 0.0 0.00 0.00 0.00 95 1010.8
20260507043154 63 105 0.0 0.0 0.00 0.00 0.00 95 1010.5
20260507042650 63 105 0.0 0.0 0.00 0.00 0.00 95 1010.4
20260507042145 63 106 0.0 0.0 0.00 0.00 0.00 94 1010.5
20260507041642 63 106 0.0 0.0 0.00 0.00 0.00 95 1010.7
20260507041138 63 106 0.0 0.0 0.00 0.00 0.00 95 1010.4
20260507040636 63 105 0.0 0.0 0.00 0.00 0.00 95 1010.6
20260507040132 63 105 0.0 0.0 0.00 0.00 0.00 95 1010.7
20260507035628 63 105 0.0 0.0 0.00 0.13 0.13 95 1010.6
20260507035124 63 106 0.0 0.0 0.00 0.13 0.13 95 1010.6
20260507034621 63 106 0.0 0.0 0.00 0.13 0.13 95 1010.6
20260507034119 63 106 0.0 0.0 0.00 0.13 0.13 95 1010.8
20260507033617 62 106 0.0 0.0 0.00 0.13 0.13 94 1010.8
20260507033114 62 106 0.0 0.0 0.00 0.13 0.13 94 1010.7
20260507032611 62 106 0.0 0.0 0.00 0.13 0.13 94 1010.4
20260507032107 62 106 0.0 0.0 0.00 0.13 0.13 93 1010.4
20260507031604 62 106 0.0 0.0 0.00 0.13 0.13 93 1009.7
20260507031101 63 105 0.0 0.0 0.00 0.13 0.13 93 1010.1
20260507030557 63 105 0.0 0.0 0.00 0.13 0.13 93 1009.9
20260507030055 63 105 0.0 0.0 0.00 0.13 0.13 93 1009.9
20260507025552 63 105 0.0 0.0 0.00 0.13 0.13 92 1009.7
20260507025049 63 105 0.0 0.0 0.00 0.13 0.13 92 1010.0
20260507024547 63 105 0.0 0.0 0.00 0.13 0.13 92 1010.0
20260507024044 64 105 0.0 0.0 0.00 0.13 0.13 92 1009.9
20260507023539 64 105 0.0 0.0 0.00 0.13 0.13 91 1010.0
20260507023037 64 106 0.0 0.0 0.00 0.13 0.13 91 1010.2
20260507022534 64 106 0.0 0.0 0.00 0.13 0.13 91 1010.5
20260507022029 64 111 0.0 0.9 0.00 0.13 0.13 92 1010.5
20260507021525 64 180 0.0 0.0 0.00 0.13 0.13 92 1010.6
20260507021022 63 116 0.0 0.0 0.00 0.13 0.13 92 1010.8
20260507020520 63 158 0.0 0.9 0.00 0.13 0.13 93 1010.5
20260507020016 63 180 0.0 0.0 0.00 0.13 0.13 92 1010.6
20260507015515 63 144 0.0 0.0 0.00 0.13 0.13 92 1010.5
20260507015012 63 137 0.0 0.0 0.00 0.13 0.13 91 1010.6
20260507014508 63 137 0.0 0.0 0.00 0.13 0.13 91 1010.6
20260507014004 64 138 0.0 0.0 0.00 0.13 0.13 90 1010.4
20260507013500 64 138 0.0 0.0 0.00 0.13 0.13 89 1010.4
20260507012958 64 138 0.0 0.0 0.00 0.13 0.13 88 1010.3
20260507012455 65 137 0.0 0.0 0.00 0.13 0.13 87 1010.4
20260507011951 65 156 0.0 0.9 0.00 0.13 0.13 86 1010.5
20260507011448 66 225 0.0 0.0 0.00 0.13 0.13 86 1010.2
20260507010944 66 15 0.9 0.9 0.00 0.13 0.13 86 1010.6
20260507010439 65 54 0.0 0.0 0.00 0.13 0.13 86 1010.4
20260507005936 66 151 0.0 0.9 0.00 0.13 0.13 86 1010.5
20260507005433 66 165 0.0 0.9 0.00 0.13 0.13 85 1010.1
20260507004930 66 150 0.0 0.0 0.00 0.13 0.13 85 1010.3
20260507004426 67 299 0.0 0.9 0.00 0.13 0.13 84 1010.2
20260507003924 67 74 0.0 1.7 0.00 0.13 0.13 84 1010.3
20260507003419 67 71 0.0 2.6 0.00 0.13 0.13 84 1010.5
20260507002914 67 339 0.9 0.9 0.00 0.13 0.13 84 1010.4
20260507002410 67 310 0.9 0.9 0.00 0.13 0.13 84 1010.3
20260507001908 67 95 0.9 2.6 0.00 0.13 0.13 84 1010.2
20260507001404 67 193 0.0 0.9 0.00 0.13 0.13 83 1010.2
20260507000902 68 128 0.9 0.9 0.00 0.13 0.13 83 1010.1
20260507000358 68 4 0.9 1.7 0.00 0.13 0.13 82 1010.1
20260506235853 68 276 0.0 0.9 0.00 0.13 0.13 81 1009.8
20260506235351 68 28 0.9 0.9 0.00 0.13 0.13 81 1009.7
20260506234846 69 316 0.9 1.7 0.00 0.13 0.13 80 1010.0
20260506234344 69 116 0.0 2.6 0.00 0.13 0.13 80 1010.0
20260506233842 69 45 0.9 0.9 0.00 0.13 0.13 80 1009.9
20260506233337 69 97 0.9 2.6 0.00 0.13 0.13 80 1009.8
20260506232835 69 97 0.9 1.7 0.00 0.13 0.13 79 1009.9
20260506232330 69 122 0.0 0.9 0.00 0.13 0.13 79 1009.9
20260506231827 70 276 0.0 1.7 0.00 0.13 0.13 79 1009.6
20260506231325 70 128 1.7 2.6 0.00 0.13 0.13 78 1009.7
20260506230822 70 125 3.5 3.5 0.00 0.13 0.13 78 1009.3
20260506230318 70 337 0.0 3.5 0.00 0.13 0.13 78 1009.7
20260506225814 70 16 1.7 2.6 0.00 0.13 0.13 77 1009.7
20260506225312 70 79 1.7 3.5 0.00 0.13 0.13 77 1009.9
20260506224809 71 337 0.0 1.7 0.00 0.13 0.13 76 1009.9
20260506224306 71 124 1.7 5.2 0.00 0.13 0.13 76 1009.7
20260506223802 71 212 1.7 6.1 0.00 0.13 0.13 76 1009.7
20260506223257 71 35 1.7 3.5 0.00 0.13 0.13 76 1009.6
20260506222755 71 345 1.7 3.5 0.00 0.13 0.13 75 1009.9
20260506222250 71 296 1.7 2.6 0.00 0.13 0.13 76 1009.9
20260506221748 71 23 1.7 7.8 0.00 0.13 0.13 76 1009.6
20260506221246 71 8 0.9 7.0 0.00 0.13 0.13 76 1009.8
20260506220743 71 338 3.5 6.1 0.00 0.13 0.13 76 1009.9
20260506220238 71 83 1.7 6.1 0.00 0.13 0.13 75 1009.8
20260506215735 71 336 4.3 6.1 0.00 0.13 0.13 76 1010.1
20260506215230 71 92 2.6 6.1 0.00 0.13 0.13 76 1009.9
20260506214727 71 95 3.5 7.0 0.00 0.13 0.13 75 1009.8
20260506214225 70 73 0.9 6.1 0.00 0.13 0.13 76 1009.9
20260506213722 70 335 5.2 7.0 0.00 0.13 0.13 76 1010.1
20260506213220 70 333 1.7 2.6 0.00 0.13 0.13 76 1010.1
20260506212717 71 76 0.9 3.5 0.00 0.13 0.13 75 1010.0
20260506212212 70 105 0.9 3.5 0.00 0.13 0.13 76 1009.9
20260506211708 70 160 0.9 5.2 0.00 0.13 0.13 76 1010.0
20260506211204 71 48 3.5 6.1 0.00 0.13 0.13 75 1010.2
20260506210701 70 64 2.6 2.6 0.00 0.13 0.13 76 1010.1
20260506210158 70 53 2.6 7.0 0.00 0.13 0.13 76 1010.1
20260506205655 70 116 4.3 6.1 0.00 0.13 0.13 75 1009.8
20260506205150 70 68 1.7 6.1 0.00 0.13 0.13 77 1009.9
20260506204648 69 100 2.6 7.8 0.00 0.13 0.13 77 1009.9
20260506204144 69 346 0.0 5.2 0.00 0.13 0.13 78 1009.8
20260506203643 69 335 2.6 5.2 0.00 0.13 0.13 78 1009.9
20260506203139 68 37 3.5 3.5 0.00 0.13 0.13 78 1009.7
20260506202638 68 47 3.5 6.1 0.00 0.13 0.13 78 1009.9
20260506202133 68 315 2.6 3.5 0.00 0.13 0.13 79 1009.9
20260506201630 69 194 2.6 5.2 0.00 0.13 0.13 79 1009.9
20260506201127 69 66 0.9 7.0 0.00 0.13 0.13 78 1009.8
20260506200623 69 14 2.6 5.2 0.00 0.13 0.13 79 1010.1
20260506200120 68 337 0.9 2.6 0.00 0.13 0.13 80 1009.7
20260506195617 68 195 1.7 8.7 0.00 0.13 0.13 80 1009.8
20260506195113 68 21 3.5 6.1 0.00 0.13 0.13 79 1010.1
20260506194611 68 32 0.9 1.7 0.00 0.13 0.13 80 1010.6
20260506194107 68 130 0.9 3.5 0.00 0.13 0.13 79 1010.5
20260506193605 68 60 0.9 5.2 0.00 0.13 0.13 79 1010.4
20260506193102 69 85 1.7 5.2 0.00 0.13 0.13 78 1010.5
20260506192559 69 278 0.9 3.5 0.00 0.13 0.13 79 1010.3
20260506192055 68 96 0.9 3.5 0.00 0.13 0.13 78 1010.4
20260506191551 69 282 3.5 7.0 0.00 0.13 0.13 78 1010.7
20260506191047 69 154 1.7 3.5 0.00 0.13 0.13 78 1010.4
20260506190545 69 334 0.9 3.5 0.00 0.13 0.13 78 1010.7
20260506190042 69 70 1.7 3.5 0.00 0.13 0.13 78 1010.6
20260506185539 69 278 1.7 1.7 0.00 0.13 0.13 78 1010.7
20260506185035 68 191 3.5 6.1 0.00 0.13 0.13 78 1010.9
20260506184533 68 58 3.5 6.1 0.00 0.13 0.13 78 1010.7
20260506184030 68 74 4.3 6.1 0.00 0.13 0.13 78 1011.1
20260506183525 68 59 6.1 11.3 0.00 0.13 0.13 78 1011.1
20260506183023 68 48 1.7 9.6 0.00 0.13 0.13 78 1011.4
20260506182520 68 12 0.9 3.5 0.00 0.13 0.13 78 1011.4
20260506182017 68 2 1.7 2.6 0.00 0.13 0.13 80 1011.1
20260506181515 68 327 1.7 9.6 0.00 0.13 0.13 80 1011.2
20260506181012 68 51 2.6 6.1 0.00 0.13 0.13 80 1011.2
20260506180508 68 321 3.5 7.0 0.00 0.13 0.13 81 1011.2
20260506180005 67 277 1.7 3.5 0.00 0.13 0.13 81 1011.1
20260506175501 67 180 2.6 3.5 0.00 0.13 0.13 82 1011.2
20260506174957 67 135 1.7 6.1 0.00 0.13 0.13 83 1011.6
20260506174456 67 160 0.9 5.2 0.00 0.13 0.13 83 1011.7
20260506173952 66 79 0.9 7.0 0.00 0.13 0.13 84 1011.6
20260506173450 66 23 2.6 5.2 0.00 0.13 0.13 85 1011.7
20260506172946 66 346 5.2 6.1 0.00 0.13 0.13 84 1011.8
20260506172444 65 93 1.7 2.6 0.00 0.13 0.13 86 1011.6
20260506171940 65 121 2.6 6.1 0.00 0.13 0.13 86 1011.7
20260506171438 65 353 0.9 2.6 0.00 0.13 0.13 88 1011.6
20260506170935 65 294 1.7 3.5 0.00 0.13 0.13 89 1011.7
20260506170431 65 324 2.6 2.6 0.00 0.13 0.13 89 1011.5
20260506165930 65 319 1.7 6.1 0.00 0.13 0.13 89 1011.3
20260506165429 64 104 2.6 5.2 0.00 0.13 0.13 89 1011.9
20260506164924 64 113 0.0 3.5 0.00 0.13 0.13 89 1011.9
20260506164421 64 123 2.6 2.6 0.00 0.13 0.13 90 1011.7
20260506163919 63 26 1.7 6.1 0.00 0.13 0.13 90 1011.8
20260506163413 63 81 2.6 7.8 0.00 0.13 0.13 90 1012.0
20260506162909 63 138 1.7 5.2 0.00 0.13 0.13 91 1011.7
20260506162407 63 11 2.6 5.2 0.00 0.13 0.13 91 1012.0
20260506161904 63 317 2.6 7.0 0.05 0.13 0.13 91 1012.0
20260506161402 63 337 3.5 7.0 0.05 0.13 0.13 90 1012.1
20260506160859 62 30 0.9 3.5 0.07 0.12 0.12 90 1012.4
20260506160356 62 335 4.3 6.1 0.14 0.12 0.12 90 1012.2
20260506155854 62 64 3.5 5.2 0.12 0.11 0.11 90 1012.2
20260506155351 62 47 0.0 3.5 0.12 0.10 0.10 89 1012.4
20260506153508 63 327 5.2 6.1 0.00 0.05 0.05 86 1012.8
20260506153005 63 323 3.5 5.2 0.07 0.05 0.05 86 1012.9
20260506152502 63 136 3.5 5.2 0.07 0.05 0.05 85 1012.8
20260506152000 64 313 8.7 12.2 0.05 0.04 0.04 84 1013.0
20260506151458 64 326 4.3 7.0 0.05 0.04 0.04 83 1012.9
20260506150955 64 53 3.5 7.0 0.00 0.03 0.03 82 1012.8
20260506150450 65 326 2.6 7.8 0.00 0.03 0.03 81 1012.9
20260506145948 65 305 0.0 0.9 0.00 0.03 0.03 82 1012.9
20260506145444 65 157 0.9 7.0 0.00 0.03 0.03 84 1012.9
20260506144942 65 16 2.6 2.6 0.00 0.03 0.03 84 1012.8
20260506144438 65 313 0.9 2.6 0.07 0.03 0.03 84 1012.8
20260506143937 64 112 0.0 0.9 0.00 0.02 0.02 85 1012.8
20260506143433 64 89 1.7 3.5 0.00 0.02 0.02 85 1012.7
20260506142932 64 255 0.0 2.6 0.05 0.02 0.02 83 1012.7
20260506142429 64 45 1.7 3.5 0.05 0.02 0.02 81 1012.8
20260506141927 65 317 1.7 1.7 0.07 0.01 0.01 80 1012.6
20260506141425 65 53 0.9 1.7 0.07 0.01 0.01 78 1012.4
20260506140923 66 87 0.9 2.6 0.00 0.00 0.00 76 1012.8
20260506140419 67 82 0.0 2.6 0.00 0.00 0.00 73 1012.8
20260506135916 67 335 1.7 1.7 0.00 0.00 0.00 70 1012.7
20260506135414 67 47 0.9 2.6 0.00 0.00 0.00 69 1012.8
20260506134910 67 154 1.7 5.2 0.00 0.00 0.00 69 1013.0
20260506134406 67 277 1.7 2.6 0.00 0.00 0.00 69 1012.9
20260506133903 67 8 1.7 3.5 0.00 0.00 0.00 69 1012.8
20260506133400 67 350 1.7 3.5 0.00 0.00 0.00 69 1013.1
20260506132856 67 327 1.7 6.1 0.00 0.00 0.00 69 1012.7
20260506132353 67 158 0.9 5.2 0.00 0.00 0.00 68 1012.9
20260506131852 67 351 3.5 5.2 0.00 0.00 0.00 68 1012.9
20260506131348 67 66 2.6 8.7 0.00 0.00 0.00 68 1012.5
20260506130845 68 298 1.7 3.5 0.00 0.00 0.00 69 1012.6
20260506130341 67 39 0.9 7.8 0.00 0.00 0.00 68 1012.5
20260506125839 67 40 0.9 6.1 0.00 0.00 0.00 69 1012.5
20260506125337 68 116 2.6 6.1 0.00 0.00 0.00 68 1012.5
20260506124835 68 322 1.7 5.2 0.00 0.00 0.00 68 1012.5
20260506124332 67 316 3.5 6.1 0.00 0.00 0.00 69 1012.4
20260506123830 67 103 3.5 8.7 0.00 0.00 0.00 69 1012.4
20260506123328 67 113 2.6 6.1 0.00 0.00 0.00 69 1012.4
20260506122825 67 155 1.7 7.8 0.00 0.00 0.00 69 1012.4
20260506122322 67 336 3.5 8.7 0.00 0.00 0.00 69 1012.7
20260506121820 66 313 1.7 7.0 0.00 0.00 0.00 69 1012.7
20260506121317 66 350 1.7 3.5 0.00 0.00 0.00 70 1012.6
20260506120814 66 11 4.3 7.0 0.00 0.00 0.00 70 1012.9
20260506120312 66 215 0.9 7.0 0.00 0.00 0.00 70 1012.9
20260506115809 66 32 4.3 11.3 0.00 0.00 0.00 70 1012.8
20260506115307 65 341 4.3 7.0 0.00 0.00 0.00 70 1013.1
20260506114804 65 146 0.9 7.8 0.00 0.00 0.00 70 1012.7
20260506114302 66 58 3.5 5.2 0.00 0.00 0.00 70 1012.8
20260506113800 66 23 6.1 7.8 0.00 0.00 0.00 69 1012.9
20260506113258 65 9 2.6 3.5 0.00 0.00 0.00 70 1012.6
20260506112754 65 1 2.6 9.6 0.00 0.00 0.00 69 1012.7
20260506112251 65 11 3.5 6.1 0.00 0.00 0.00 70 1012.8
20260506111749 65 117 3.5 7.0 0.00 0.00 0.00 70 1012.8
20260506111247 65 309 7.0 7.8 0.00 0.00 0.00 70 1012.7
20260506110743 64 174 0.9 6.1 0.00 0.00 0.00 71 1012.4
20260506110241 64 95 0.0 1.7 0.00 0.00 0.00 72 1012.9
20260506105737 64 358 1.7 2.6 0.00 0.00 0.00 72 1012.6
20260506105234 64 310 0.9 1.7 0.00 0.00 0.00 72 1012.4
20260506104732 64 342 2.6 7.8 0.00 0.00 0.00 72 1012.6
20260506104230 64 132 0.9 6.1 0.00 0.00 0.00 72 1012.7
20260506103727 64 325 3.5 3.5 0.00 0.00 0.00 72 1012.6
20260506103224 64 32 0.9 5.2 0.00 0.00 0.00 72 1012.5
20260506102722 64 328 2.6 5.2 0.00 0.00 0.00 72 1012.4
20260506102220 64 116 1.7 7.0 0.00 0.00 0.00 72 1012.6
20260506101716 64 302 1.7 3.5 0.00 0.00 0.00 73 1012.3
20260506101212 64 25 1.7 5.2 0.00 0.00 0.00 73 1012.2
20260506100711 64 331 2.6 3.5 0.00 0.00 0.00 73 1012.5
20260506100208 64 310 3.5 3.5 0.00 0.00 0.00 74 1012.4
20260506095707 64 43 2.6 3.5 0.00 0.00 0.00 74 1012.6
20260506095203 64 331 6.1 8.7 0.00 0.00 0.00 74 1012.5
20260506094700 64 335 0.0 6.1 0.00 0.00 0.00 74 1012.3
20260506094158 64 19 0.0 2.6 0.00 0.00 0.00 74 1012.4
20260506093657 64 61 0.9 0.9 0.00 0.00 0.00 74 1012.6
20260506093153 64 343 3.5 5.2 0.00 0.00 0.00 74 1012.4
20260506092651 64 36 0.0 7.0 0.00 0.00 0.00 74 1012.6
20260506092148 64 311 2.6 5.2 0.00 0.00 0.00 74 1012.4
20260506091646 64 346 1.7 3.5 0.00 0.00 0.00 74 1012.6
20260506091143 64 45 2.6 3.5 0.00 0.00 0.00 74 1012.5
20260506090641 64 145 0.0 5.2 0.00 0.00 0.00 74 1012.4
20260506090137 64 109 1.7 5.2 0.00 0.00 0.00 74 1012.4
20260506085634 64 77 2.6 3.5 0.00 0.00 0.00 74 1012.6
20260506085130 64 336 1.7 3.5 0.00 0.00 0.00 74 1012.5
20260506084627 64 316 1.7 5.2 0.00 0.00 0.00 74 1012.7
20260506084124 65 7 0.9 0.9 0.00 0.00 0.00 74 1012.8
20260506083621 64 327 3.5 5.2 0.00 0.00 0.00 74 1012.5
20260506083119 65 311 0.9 6.1 0.00 0.00 0.00 74 1012.4
20260506082615 65 52 3.5 7.0 0.00 0.00 0.00 74 1012.7
20260506082111 65 47 2.6 6.1 0.00 0.00 0.00 74 1012.5